Location: Spring Creek
(38.2870°N, 100.2160°W)
Time: 03:05:52
(UTC+00:00)

Meteor 2-15 - Pass Details

Date: 02 October 2021
Orbit: 937 x 954 km, 82.5° (Epoch: 23 October)

Event Time Altitude Azimuth Distance (km) Brightness Sun altitude
Exits shadow 09:30:49 16° 350° (N) 2,254 6.5 -36.3°
Drops below altitude 10° 09:32:03 10° 355° (N) 2,678 7.0 -36.1°
Sets 09:34:41 0° 2° (N) 3,630 7.8 -35.7°
